User: anonymous   Login
Location: Unspecified
(0.0000°N, 0.0000°E)
Time: 22:35:58
(UTC+00:00)
Language:

MTI - Orbit

View from above orbital plane
View from above orbital plane
View from above satellite
View from above satellite

Ground track
Ground track

The orbit data is extracted from the following two-line orbital elements,

1 26102U 00014A   18175.53248172  .00002941  00000-0  53608-4 0  9992
2 26102  97.5807  10.1446 0008451  12.4328  42.2865 15.50337912 12166
Epoch (UTC): 24 June 2018 12:46:46
Eccentricity: 0.0008451
inclination: 97.5807°
perigee height: 410 km
apogee height: 421 km
right ascension of ascending node: 10.1446°
argument of perigee: 12.4328°
revolutions per day: 15.50337912
mean anomaly at epoch: 42.2865°
orbit number at epoch: 1216

The dashed part of the orbit path shows where the satellite is in the earth's shadow,  

DLR